This demonstration page uses our WeatherBlox Daily Observations layout. Learn more.

Left ArrowRight Arrow

Hourly Observations for November 21, 2016

Temp ( °F °C ) Dew Point ( °F °C ) Humidity (%) Winds ( mph kmh ) Pressure ( in mb ) Visibility ( mi km ) Precip ( " mm )
12:15 am 00:15 Clear 34 0.9 24 -4.2 69 69 SW 3 6 30.12 1020 10 16 N/A
12:35 am 00:35 Clear 34 1 25 -4 70 70 SSW 6 9 30.15 1021 10 16 N/A
12:55 am 00:55 Clear 35 1.6 25 -4 67 67 SW 5 7 30.15 1021 10 16 N/A
1:15 am 01:15 Clear 35 1.4 24 -4.2 67 67 N N/A 30.12 1020 10 16 N/A
1:35 am 01:35 Clear 32 -0.2 23 -5 70 70 N N/A 30.15 1021 10 16 N/A
1:55 am 01:55 Clear 30 -0.9 23 -4.9 75 75 N N/A 30.15 1021 10 16 N/A
2:15 am 02:15 Clear 29 -1.4 23 -4.9 77 77 N N/A 30.15 1021 10 16 N/A
2:35 am 02:35 Clear 29 -1.7 22 -5.3 77 77 N N/A 30.15 1021 10 16 N/A
2:55 am 02:55 Clear 27 -2.6 23 -5.1 83 83 N N/A 30.12 1020 10 16 N/A
3:15 am 03:15 Clear 29 -1.8 23 -4.9 80 80 N N/A 30.12 1020 10 16 N/A
3:35 am 03:35 Clear 28 -2 24 -4.6 83 83 N N/A 30.12 1020 10 16 N/A
3:55 am 03:55 Clear 28 -2 24 -4.5 83 83 N N/A 30.12 1020 10 16 N/A
4:15 am 04:15 Clear 29 -1.8 24 -4.4 83 83 N N/A 30.12 1020 10 16 N/A
4:35 am 04:35 Clear 31 -0.6 25 -3.7 80 80 N N/A 30.12 1020 10 16 N/A
4:55 am 04:55 Clear 31 -0.5 25 -4 77 77 N N/A 30.12 1020 10 16 N/A
5:15 am 05:15 Clear 30 -1 25 -3.8 82 82 ESE 3 6 30.12 1020 10 16 N/A
5:35 am 05:35 Clear 30 -1 25 -3.8 82 82 S 3 6 30.12 1020 10 16 N/A
5:55 am 05:55 Clear 30 -1 26 -3.5 83 83 ESE 8 13 30.12 1020 10 16 N/A
6:15 am 06:15 Clear 32 undefined 27 -3 80 80 ESE 6 9 30.09 1019 10 16 N/A
6:35 am 06:35 Clear 33 0.6 28 -2.4 81 81 SE 6 9 30.09 1019 10 16 N/A
6:55 am 06:55 Clear 33 0.6 28 -2.5 80 80 ESE 8 13 30.09 1019 10 16 N/A
7:15 am 07:15 Clear 34 1.2 28 -2.2 78 78 ESE 7 11 30.09 1019 10 16 N/A
7:35 am 07:35 Sunny 35 1.7 28 -2.3 75 75 ESE 7 11 30.09 1019 10 16 N/A
7:55 am 07:55 Partly Cloudy 35 1.6 28 -2 77 77 ESE 6 9 30.09 1019 10 16 N/A
8:15 am 08:15 Partly Cloudy 35 1.8 28 -2 76 76 ESE 8 13 30.09 1019 10 16 N/A
8:35 am 08:35 Partly Cloudy 36 2.2 28 -2.2 73 73 S 9 15 30.12 1020 10 16 N/A
8:55 am 08:55 Mostly Cloudy 38 3.4 29 -1.7 70 70 SSW 9 15 30.12 1020 10 16 N/A
9:15 am 09:15 Cloudy 40 4.5 29 -1.8 64 64 SSW 7 11 30.12 1020 10 16 N/A
9:35 am 09:35 Mostly Cloudy 40 4.5 29 -1.8 64 64 S 8 13 30.09 1019 10 16 N/A
9:55 am 09:55 Mostly Cloudy 40 4.6 29 -1.5 65 65 SE 7 11 30.09 1019 10 16 N/A
10:15 am 10:15 Mostly Cloudy 41 5.1 30 -1.3 64 64 E 7 11 30.06 1018 10 16 N/A
10:35 am 10:35 Cloudy 42 5.6 30 -1.1 62 62 E 9 15 30.03 1017 10 16 N/A
10:55 am 10:55 Cloudy 43 6.2 30 -1 60 60 ESE 9 15 30.00 1016 10 16 N/A
11:15 am 11:15 Cloudy 44 6.7 30 -1.1 58 58 S 8 13 30.00 1016 10 16 N/A
11:35 am 11:35 Cloudy 45 7 30 -1 57 57 SE 12 19 29.97 1015 10 16 N/A
11:55 am 11:55 Cloudy 46 8 30 -1.3 52 52 S 8 13 30.00 1016 10 16 N/A
12:15 pm 12:15 Cloudy 47 8.5 29 -1.5 50 50 SSE 10 17 29.97 1015 10 16 N/A
12:35 pm 12:35 Cloudy 48 8.8 30 -1.3 49 49 SE 9 15 29.94 1014 10 16 N/A
12:55 pm 12:55 Cloudy 49 9.3 29 -1.5 47 47 SE 12 19 29.94 1014 10 16 N/A
1:15 pm 13:15 Cloudy 49 9.4 30 -1.2 48 48 SSE 13 20 29.91 1013 10 16 N/A
1:35 pm 13:35 Cloudy 49 9.6 31 -0.8 49 49 ESE 9 15 29.88 1012 10 16 N/A
1:55 pm 13:55 Cloudy 49 9.6 31 -0.8 49 49 ESE 12 19 29.88 1012 10 16 N/A
2:15 pm 14:15 Partly Cloudy 51 10.5 31 -0.8 46 46 SSE 12 19 29.88 1012 10 16 N/A
2:35 pm 14:35 Sunny 51 10.5 31 -0.4 47 47 SE 14 22 29.88 1012 10 16 N/A
2:55 pm 14:55 Sunny 51 10.3 32 undefined 49 49 SE 10 17 29.85 1011 10 16 N/A
3:15 pm 15:15 Partly Cloudy 51 10.4 32 0.2 50 50 SE 16 26 29.85 1011 10 16 N/A
3:35 pm 15:35 Mostly Cloudy 51 10.5 33 0.3 50 50 SE 13 20 29.85 1011 10 16 N/A
3:55 pm 15:55 Mostly Cloudy 50 10.2 33 0.5 51 51 SE 12 19 29.85 1011 10 16 N/A
4:15 pm 16:15 Mostly Cloudy 49 9.6 33 0.5 53 53 SE 10 17 29.85 1011 10 16 N/A
4:35 pm 16:35 Partly Cloudy 49 9.2 33 0.5 55 55 SE 15 24 29.83 1010 10 16 N/A
4:55 pm 16:55 Mostly Cloudy 48 8.7 33 0.5 57 57 ESE 16 26 29.83 1010 10 16 N/A
5:15 pm 17:15 Cloudy 47 8.1 33 0.5 59 59 ESE 17 28 29.80 1009 10 16 N/A
5:35 pm 17:35 Cloudy 45 7.3 33 0.8 64 64 SE 12 19 29.85 1011 10 16 N/A
5:55 pm 17:55 Cloudy with Light Rain 44 6.8 35 1.4 69 69 ESE 18 30 29.83 1010 10 16 N/A
6:15 pm 18:15 Cloudy with Drizzle 44 6.5 36 2.1 74 74 ESE 16 26 29.83 1010 10 16 N/A
6:35 pm 18:35 Cloudy with Drizzle 44 6.7 37 2.5 75 75 SSE 6 9 29.85 1011 10 16 N/A
6:55 pm 18:55 Cloudy with Drizzle 44 6.8 37 2.6 75 75 N N/A 29.88 1012 10 16 N/A
7:15 pm 19:15 Cloudy with Drizzle 44 6.7 37 2.6 75 75 ESE 5 7 29.88 1012 10 16 N/A
7:35 pm 19:35 Cloudy 44 6.4 37 2.8 78 78 ENE 7 11 29.85 1011 10 16 N/A
7:55 pm 19:55 Cloudy 43 6 37 2.8 80 80 N N/A 29.85 1011 10 16 N/A
8:15 pm 20:15 Mostly Cloudy 42 5.7 37 2.7 81 81 ENE 5 7 29.85 1011 10 16 N/A
8:35 pm 20:35 Mostly Cloudy 41 5 37 2.7 85 85 E 8 13 29.85 1011 10 16 N/A
8:55 pm 20:55 Cloudy 42 5.3 36 2.4 82 82 E 8 13 29.85 1011 10 16 N/A
9:15 pm 21:15 Cloudy 42 5.4 37 2.5 82 82 E 10 17 29.83 1010 10 16 N/A
9:35 pm 21:35 Cloudy 41 5.1 36 2.3 82 82 E 12 19 29.83 1010 10 16 N/A
9:55 pm 21:55 Cloudy 41 5 36 2.1 82 82 E 10 17 29.83 1010 10 16 N/A
10:15 pm 22:15 Partly Cloudy 40 4.3 35 1.6 83 83 E 9 15 29.83 1010 10 16 N/A
10:35 pm 22:35 Mostly Cloudy 40 4.3 36 2 85 85 E 10 17 29.83 1010 10 16 N/A
10:55 pm 22:55 Partly Cloudy 40 4.2 35 1.7 84 84 E 12 19 29.83 1010 10 16 N/A
11:15 pm 23:15 Clear 39 3.8 35 1.5 85 85 E 10 17 29.85 1011 10 16 N/A
11:35 pm 23:35 Clear 39 3.7 35 1.5 86 86 E 12 19 29.80 1009 10 16 N/A
11:55 pm 23:55 Clear 38 3.6 35 1.5 86 86 ESE 12 19 29.80 1009 10 16 N/A

Powered by AerisWeather